PDT,Max TemperatureF,Mean TemperatureF,Min TemperatureF,Max Dew PointF,MeanDew PointF,Min DewpointF,Max Humidity, Mean Humidity, Min Humidity, Max Sea Level PressureIn, Mean Sea Level PressureIn, Min Sea Level PressureIn, Max VisibilityMiles, Mean VisibilityMiles, Min VisibilityMiles, Max Wind SpeedMPH, Mean Wind SpeedMPH, Max Gust SpeedMPH,PrecipitationIn, CloudCover, Events, WindDirDegrees
2013-9-1,98,85,72,63,57,52,54,41,27,29.90,29.85,29.79,10,10,10,14,5,18,0.00,0,,322
2013-9-2,96,84,72,63,59,56,61,46,31,29.92,29.86,29.79,10,10,8,18,9,23,0.00,0,,312
2013-9-3,93,81,69,61,57,54,68,49,30,29.96,29.90,29.84,10,10,10,16,9,23,0.01,0,Rain,323
2013-9-4,95,81,66,58,55,52,63,46,28,29.99,29.92,29.85,10,10,6,15,8,17,0.00,0,,315
2013-9-5,93,80,66,56,52,48,58,43,28,29.97,29.92,29.86,10,10,10,15,8,18,0.00,0,,315
2013-9-6,94,80,65,56,52,49,63,44,24,29.96,29.89,29.80,10,10,10,14,6,21,0.00,0,,323
2013-9-7,102,82,61,58,53,49,78,48,17,29.88,29.82,29.75,10,10,7,9,3,17,0.00,0,,13
2013-9-8,101,84,66,55,51,44,59,37,15,29.84,29.77,29.69,10,9,6,12,5,16,0.00,0,,325
2013-9-9,99,82,64,56,52,48,67,43,18,29.77,29.72,29.65,10,9,6,13,4,18,0.00,0,,296
2013-9-10,100,82,63,58,51,43,78,47,15,29.81,29.74,29.70,10,8,5,9,2,,0.00,0,,7
2013-9-11,90,77,63,58,54,50,78,53,27,29.96,29.90,29.83,10,10,8,12,6,15,0.00,0,,305
2013-9-12,92,77,61,58,56,51,78,52,26,29.96,29.89,29.82,10,10,8,12,5,15,0.00,0,,319
2013-9-13,94,79,63,59,56,52,73,50,26,29.85,29.78,29.69,10,10,8,9,5,15,0.00,0,,306
2013-9-14,97,82,67,58,55,51,68,45,22,29.76,29.71,29.64,10,10,9,13,6,16,0.00,0,,320
2013-9-15,94,78,62,57,50,46,63,42,20,29.80,29.75,29.71,10,10,9,16,9,21,0.00,0,,318
2013-9-16,93,78,62,56,54,52,78,51,24,29.87,29.80,29.72,10,10,10,14,6,0,0.00,0,,322
2013-9-17,88,77,65,54,46,40,53,36,18,29.83,29.79,29.75,10,10,8,18,11,23,0.00,0,,325
2013-9-18,86,71,56,51,48,45,72,50,27,29.90,29.83,29.78,10,10,7,17,6,23,0.00,0,,327
2013-9-19,92,73,53,51,46,42,77,49,20,29.87,29.80,29.72,10,10,6,9,2,13,0.00,0,,303
2013-9-20,94,74,54,56,48,39,77,47,17,29.82,29.76,29.72,10,8,5,18,6,25,0.00,1,,318
2013-9-21,84,71,58,57,53,41,87,55,23,29.89,29.82,29.74,10,7,1,17,4,22,0.00,0,,313
2013-9-22,76,65,53,52,49,45,89,61,33,29.98,29.94,29.89,10,10,10,14,7,18,0.00,1,,321
2013-9-23,84,68,51,53,50,46,83,56,29,30.03,29.97,29.91,10,10,9,8,3,12,0.00,0,,330
2013-9-24,89,71,52,53,50,45,86,55,23,29.99,29.90,29.81,10,9,4,24,6,30,0.00,1,,316
2013-9-25,75,65,54,46,43,36,67,46,25,29.93,29.84,29.75,10,10,8,23,12,29,0.00,0,,329
2013-9-26,75,62,49,42,38,33,71,47,23,29.96,29.86,29.78,10,10,8,20,10,29,0.00,0,,329
2013-9-27,80,61,42,40,36,28,76,46,16,30.10,30.04,29.97,10,10,7,9,2,13,0.00,0,,322
2013-9-28,86,65,44,44,37,31,71,43,14,30.11,30.05,29.98,10,10,7,8,1,13,0.00,0,,319
2013-9-29,88,68,47,50,40,33,71,43,15,30.11,30.05,29.99,10,9,6,12,3,14,0.00,0,,310
2013-9-30,85,72,58,56,53,49,86,59,31,30.08,30.00,29.92,10,10,10,14,6,18,0.00,0,,311